Theta_e
318 312 308 309 298 297 293 294 299 301 302 304 307 311 311 311 312 304 327 337 341 342 343 343 345 347 347 347 346 344 343 343 343 344 345 342 341 339 338 341 344 345 343 343 343 342 341 343 343
311 314 310 302 294 290 290 295 298 300 305 306 307 306 310 310 320 323 328 337 342 342 341 340 343 346 346 347 346 344 343 343 342 341 343 341 339 339 338 337 339 340 340 340 339 339 338 340 341
314 312 302 297 293 290 290 294 300 304 308 306 304 308 310 312 322 325 332 340 341 340 339 339 343 345 346 347 346 344 343 343 342 340 341 340 339 338 338 338 339 340 338 339 340 339 340 338 338
308 304 300 294 292 295 294 298 302 301 303 305 306 306 313 325 325 329 335 337 338 338 338 340 344 345 346 347 346 344 343 342 342 340 338 340 339 340 341 340 341 340 338 338 337 335 337 336 336
305 300 293 291 292 294 297 302 302 300 300 300 303 305 311 325 329 330 333 338 337 336 338 341 343 344 345 346 346 344 343 342 341 339 337 339 341 340 338 339 340 340 338 338 337 336 335 334 335
299 299 290 288 293 295 297 301 301 299 300 300 306 310 313 327 326 327 333 337 338 336 338 340 336 339 342 343 345 344 342 341 340 339 337 338 338 339 338 339 338 338 338 336 335 334 332 331 333
298 296 291 291 293 295 298 301 300 299 299 299 305 308 315 323 327 328 333 337 337 337 337 337 337 336 335 338 340 341 341 340 339 339 338 336 336 336 336 335 337 337 336 334 334 333 331 330 330
300 298 293 291 293 293 299 299 299 299 299 304 307 305 309 322 328 328 334 337 335 335 336 335 334 335 334 335 333 336 337 337 336 334 331 329 329 330 330 331 335 336 335 333 333 332 330 329 328
303 293 291 294 295 296 298 297 299 301 302 303 308 310 318 328 328 326 330 333 334 334 334 334 333 333 333 333 331 332 332 331 330 329 326 324 323 324 325 327 332 336 334 332 331 330 328 326 324
296 293 295 296 297 297 299 299 299 298 299 301 313 324 327 327 325 323 323 327 330 331 331 333 332 331 332 335 333 334 331 327 326 325 324 324 323 324 324 322 326 328 328 330 329 328 326 321 317
298 295 296 297 300 301 299 296 299 297 296 302 310 320 323 324 324 322 322 325 326 332 333 334 333 333 331 332 332 332 328 325 325 323 323 322 322 321 320 319 318 318 319 320 321 319 319 319 317
296 298 298 300 300 300 300 299 298 299 298 302 313 325 323 322 323 324 323 325 327 330 332 334 334 333 332 331 331 331 330 327 326 324 324 321 320 319 318 317 317 316 317 316 316 316 317 316 317
296 297 298 299 299 298 300 297 297 298 299 304 313 324 321 321 322 323 326 326 326 328 331 333 335 335 333 331 331 330 330 331 330 330 325 321 320 319 318 317 317 316 316 315 315 315 316 315 315
296 297 297 297 297 297 298 294 297 299 299 302 313 315 320 321 323 323 325 325 325 326 330 333 334 335 335 333 331 331 330 330 329 329 327 321 320 319 319 318 317 316 315 315 315 315 314 313 314
295 293 294 295 296 294 296 293 294 297 299 299 302 307 313 319 321 321 324 326 328 328 328 331 333 335 334 334 332 331 331 330 329 329 327 323 320 320 319 319 316 316 314 314 313 313 313 312 312
292 291 287 292 295 295 293 289 296 298 296 296 297 297 301 309 316 319 322 323 328 328 328 328 331 334 334 334 333 332 331 330 329 329 328 325 322 320 319 318 316 315 313 313 312 311 310 309 310
288 284 286 289 295 294 292 289 294 295 294 293 293 294 296 300 302 310 318 322 325 326 328 327 328 330 333 334 333 332 331 330 329 328 328 326 323 320 318 318 317 314 312 311 311 310 309 307 307
285 285 286 288 291 292 290 290 292 294 293 293 293 294 294 297 300 304 310 319 322 325 327 328 328 327 330 332 332 331 331 330 329 328 328 327 325 321 317 317 316 312 310 310 309 308 308 307 307
289 286 286 288 292 290 289 290 292 293 293 293 294 294 294 295 298 300 305 313 319 322 325 327 327 326 327 328 329 329 328 329 329 328 328 327 326 321 317 315 315 311 310 309 308 307 308 305 306
288 286 284 289 292 290 288 289 291 293 294 294 295 294 295 295 296 298 299 299 302 306 317 324 328 327 327 327 329 329 329 328 330 330 328 327 326 323 318 315 313 311 309 308 309 308 302 306 305
286 286 285 287 289 288 286 285 287 291 293 294 294 295 295 295 296 297 300 300 301 300 300 303 318 327 327 327 327 325 327 325 326 327 328 327 326 324 321 319 317 315 314 311 310 309 306 304 303
285 289 289 288 284 280 285 278 284 288 290 291 293 293 294 296 297 300 302 302 303 306 308 306 304 308 327 326 326 325 324 323 326 327 327 327 326 324 322 321 318 316 313 310 308 307 306 305 302
287 290 288 287 283 281 280 279 283 286 288 290 291 292 292 295 297 299 300 304 305 308 307 306 303 302 307 326 326 325 325 326 325 325 325 325 325 326 322 320 318 316 314 312 309 307 304 307 307
291 288 288 285 282 277 280 280 280 284 288 289 290 291 295 296 297 298 300 303 304 307 307 307 300 300 305 321 322 324 325 323 322 323 324 324 324 323 321 320 319 318 315 312 310 309 307 307 307
289 284 277 276 276 276 281 279 283 287 289 290 292 293 294 295 296 297 298 299 300 302 306 308 307 308 312 314 318 322 319 323 322 322 323 322 321 319 320 319 318 318 317 315 313 310 308 307 306
286 285 279 274 274 276 279 278 284 289 288 290 293 294 294 294 296 297 298 298 300 300 305 306 307 307 309 310 311 313 315 319 319 320 320 319 320 318 319 318 319 318 318 317 314 311 310 308 306
286 283 287 279 270 275 278 282 288 290 288 290 292 294 294 295 296 296 298 299 299 300 301 303 304 305 307 308 308 308 311 313 312 312 312 311 310 308 310 310 310 309 309 310 311 309 307 305 305
287 289 281 280 270 270 275 278 281 285 288 288 292 292 293 295 295 295 296 297 298 299 299 301 301 301 302 304 304 306 309 310 310 309 307 306 306 305 305 306 305 305 304 304 304 304 303 302 302
285 283 284 284 280 275 272 277 284 287 289 289 290 293 293 294 294 294 295 295 295 296 296 297 298 299 300 301 301 301 301 301 301 301 302 302 302 300 301 302 301 300 300 300 300 299 299 298 298
287 286 286 280 277 278 278 281 286 287 290 290 290 294 294 295 294 294 294 294 293 293 294 294 295 296 297 297 297 297 297 297 296 296 296 296 298 297 295 295 295 294 294 294 297 296 296 296 295
Wind_Speed
7 8 2 5 5 6 1 1 4 6 5 2 4 12 9 3 3 4 6 17 17 13 9 9 13 15 12 14 13 14 13 14 16 15 19 19 18 17 17 17 16 17 19 19 18 18 18 16 20
5 5 5 2 5 3 5 4 7 3 5 5 8 5 7 3 3 7 10 17 17 13 10 8 11 14 12 14 14 14 13 13 15 15 17 18 17 18 18 18 15 17 17 17 16 16 16 17 18
5 1 4 4 3 3 5 2 9 4 6 3 4 6 3 2 3 5 12 18 17 12 11 9 11 13 12 14 14 13 13 13 14 14 15 15 16 16 17 17 15 16 18 17 17 17 17 18 18
3 6 5 3 2 5 7 6 7 5 3 4 5 8 5 4 11 8 15 16 15 12 10 10 12 13 12 12 14 14 13 13 13 13 15 14 15 16 15 16 15 15 19 18 17 17 15 16 17
4 4 1 2 2 2 3 9 7 6 5 2 4 3 4 3 9 12 15 15 16 11 9 9 12 12 12 12 13 14 13 13 13 14 14 13 13 17 16 16 16 17 19 18 17 15 15 15 17
3 4 3 4 2 2 4 8 8 6 5 3 7 6 1 6 8 7 12 14 14 13 9 8 9 11 11 10 11 14 14 13 12 12 13 13 14 17 16 16 16 17 17 16 15 15 14 14 16
4 4 5 1 7 2 4 6 8 7 5 1 7 5 5 6 7 7 13 14 13 12 9 7 5 8 10 9 9 12 13 12 12 12 12 11 12 14 13 10 15 15 16 15 14 13 12 11 13
3 3 1 2 7 4 6 3 5 6 2 1 5 6 6 6 9 8 13 15 13 11 10 8 6 5 6 6 7 10 11 12 12 11 11 10 10 11 8 10 12 14 14 13 12 11 10 9 9
1 4 2 4 7 6 5 4 3 2 7 4 4 4 11 11 10 7 11 9 11 10 10 9 8 6 6 6 6 9 10 10 10 9 10 8 4 6 6 8 11 13 13 11 9 9 8 6 7
3 4 3 2 4 6 6 6 6 5 5 5 7 7 8 8 8 9 8 10 10 11 10 11 9 8 7 6 6 6 6 4 4 5 6 4 5 5 6 7 11 11 10 10 7 5 4 5 3
4 5 2 3 4 8 10 4 4 10 2 7 13 9 6 5 6 8 7 10 7 8 9 11 11 10 9 7 4 3 3 3 3 6 5 4 4 4 3 3 3 4 6 3 2 2 2 3 1
3 5 2 3 4 5 8 7 6 5 5 6 15 17 8 8 9 9 8 8 9 8 9 8 9 8 9 7 5 6 5 4 4 5 5 4 4 4 4 3 4 4 3 3 3 1 1 2 4
3 1 5 2 6 5 4 3 4 6 5 6 14 14 12 10 7 6 6 6 7 9 8 7 8 6 7 9 8 7 6 6 7 5 6 5 4 5 4 4 4 3 2 3 3 3 2 2 2
2 4 4 3 2 3 5 1 1 6 7 10 15 12 12 14 14 9 9 10 11 9 11 8 9 7 6 6 7 7 6 5 4 4 5 6 5 5 5 5 4 4 4 3 3 3 3 2 2
4 6 2 2 4 3 3 0 6 3 8 10 11 10 10 13 12 15 15 15 16 13 11 13 11 10 8 7 6 5 6 5 5 4 7 7 5 6 6 6 4 5 4 5 3 2 2 2 1
4 6 4 3 5 1 3 7 6 8 9 9 9 8 9 10 13 11 12 13 15 14 14 12 10 11 10 9 6 4 4 5 5 5 6 7 6 6 5 5 4 5 4 4 3 3 2 3 3
2 4 3 1 5 3 3 6 3 6 8 9 8 9 8 8 8 9 10 12 14 14 15 13 11 12 11 8 6 5 6 4 5 4 6 9 7 6 5 4 5 5 4 4 3 2 3 3 3
6 3 4 6 6 3 3 7 3 4 5 9 8 7 9 9 11 9 9 9 9 12 13 14 11 10 10 6 5 3 3 4 4 6 6 9 8 7 6 4 5 5 4 4 3 3 3 3 4
7 6 6 1 1 4 6 6 10 8 5 8 8 7 6 9 9 8 7 8 9 8 11 13 14 11 9 6 7 6 8 6 5 5 8 9 8 9 7 5 5 5 6 5 5 3 5 3 2
3 6 3 1 1 3 2 11 11 7 8 8 9 9 9 5 5 7 8 6 6 6 7 9 14 14 12 9 8 5 5 4 6 5 5 7 9 9 8 7 5 6 5 6 6 5 2 3 4
4 6 5 5 3 1 3 8 7 9 7 8 8 7 7 9 10 6 6 5 3 2 1 4 7 12 13 12 7 3 3 2 4 5 6 5 7 9 10 9 6 6 7 7 6 7 7 4 3
6 5 6 8 4 3 4 6 6 6 8 7 11 9 8 7 6 5 6 4 3 2 3 3 1 3 9 10 10 12 9 8 5 6 5 6 7 7 9 10 9 8 5 5 6 5 4 3 3
6 6 8 4 3 4 1 1 10 2 5 9 10 9 8 8 9 8 6 4 3 3 2 3 5 3 3 10 10 9 8 7 3 3 6 6 6 8 8 9 8 8 7 8 7 6 7 6 6
9 9 9 6 4 2 7 7 8 6 8 5 4 6 9 9 8 7 6 5 3 2 2 3 4 5 5 7 8 10 9 6 4 4 6 5 5 5 7 8 9 8 7 8 8 9 9 9 8
9 8 3 3 2 7 2 3 9 5 7 7 8 10 9 8 8 7 6 4 2 2 2 4 4 4 4 6 6 7 5 7 6 6 5 5 4 3 6 8 8 7 9 8 8 9 9 8 8
8 9 8 9 6 5 2 9 9 4 1 0 7 8 7 6 6 8 6 5 4 3 4 4 4 6 7 7 7 6 5 5 3 3 2 2 1 1 0 4 5 6 6 6 5 5 6 7 7
6 6 6 8 3 4 5 8 9 5 4 1 7 8 8 8 8 7 6 6 5 4 4 5 6 6 6 6 6 6 6 7 4 5 5 4 4 4 5 5 5 5 5 4 1 2 4 4 4
6 8 4 3 5 4 6 8 8 6 10 6 7 10 9 9 8 7 6 6 4 5 5 6 7 7 6 7 6 6 8 6 6 6 7 6 5 5 6 6 6 6 6 6 5 4 4 3 2
4 4 3 6 7 7 2 9 8 11 13 16 14 9 9 9 9 8 7 5 6 5 6 6 6 7 7 7 7 7 6 7 7 7 6 6 7 6 6 6 6 6 6 6 5 5 5 4 4
2 7 8 6 5 2 4 14 3 3 7 10 10 13 9 8 8 7 7 7 6 6 6 6 6 7 6 6 8 7 7 7 8 7 6 6 7 6 6 6 6 6 6 5 5 5 4 5 5
Wind_Direction
324 310 327 35 44 65 254 130 109 76 52 355 84 94 112 71 49 165 113 122 129 129 132 125 121 117 113 118 109 103 97 93 88 84 93 88 85 83 76 65 62 68 74 74 70 76 75 63 54
324 331 33 56 80 45 271 164 119 120 126 94 70 112 52 83 52 115 107 129 129 132 129 126 122 120 116 124 113 109 105 100 96 88 87 87 88 87 83 85 81 78 79 81 86 83 83 66 63
303 49 67 97 132 194 180 90 131 118 106 104 88 74 89 83 89 122 126 132 129 129 130 132 126 124 117 123 120 114 109 104 96 94 89 89 90 85 91 84 83 85 85 84 86 84 71 63 56
17 11 9 95 247 292 123 171 134 106 40 62 107 69 58 303 149 152 134 133 123 127 130 132 129 125 117 118 125 119 113 108 103 98 88 79 101 96 89 83 93 88 91 87 86 88 71 64 58
31 70 41 287 255 20 89 145 127 114 149 127 100 106 76 27 116 125 131 118 121 122 126 129 127 122 119 120 127 123 119 115 110 104 103 84 95 100 93 84 83 90 91 91 87 83 71 61 58
23 98 70 246 204 166 112 167 123 124 162 125 81 102 127 130 116 136 112 122 124 127 124 127 129 124 119 120 121 130 124 119 114 105 108 92 85 93 92 94 83 96 97 94 91 82 72 60 59
122 97 205 195 181 160 157 129 122 133 139 156 136 84 167 129 165 142 116 125 126 124 123 120 127 130 124 120 119 131 127 122 118 103 101 92 90 90 95 100 99 95 97 99 92 90 83 66 61
117 104 277 198 191 176 171 70 82 110 160 166 121 150 190 188 162 144 125 126 135 134 135 138 136 136 125 126 123 134 130 127 120 116 110 104 100 90 81 98 114 113 109 108 104 99 91 68 47
35 58 277 251 171 170 157 124 48 110 103 50 33 144 152 153 146 137 119 129 140 141 147 144 148 151 137 127 125 128 126 127 125 126 129 120 111 107 87 86 90 106 114 107 101 104 102 76 33
118 130 234 301 166 161 139 126 133 97 106 53 63 37 105 122 150 160 157 149 156 153 158 157 157 158 148 138 137 127 130 133 133 144 152 125 124 116 99 84 81 79 78 83 95 99 81 33 7
210 189 263 9 355 141 144 130 133 122 187 184 161 157 144 141 148 168 168 154 160 139 159 166 163 163 156 144 153 140 143 153 157 164 164 135 126 118 110 103 84 82 83 87 65 26 339 310 11
245 211 72 24 0 104 138 149 138 159 173 185 168 161 151 169 177 174 167 161 155 162 155 165 149 158 157 154 167 162 165 171 168 186 169 144 127 131 138 134 144 148 154 168 176 200 195 74 58
226 270 81 66 62 65 97 106 153 155 148 98 141 156 160 176 190 196 170 153 162 194 179 175 148 175 156 165 168 175 178 181 181 170 162 150 153 154 152 160 162 179 183 190 182 180 117 77 56
234 131 122 115 84 54 114 97 91 216 160 114 154 168 172 181 188 186 188 186 186 182 195 176 174 178 177 165 179 176 170 173 159 163 164 167 169 162 170 167 177 187 190 189 173 170 162 165 124
135 96 56 139 182 145 121 191 233 197 162 150 166 180 186 192 193 191 190 195 187 190 182 196 184 180 184 184 177 168 178 171 161 169 165 178 181 185 168 171 177 181 182 177 167 172 152 150 172
135 85 134 257 155 195 117 249 235 205 159 183 196 204 199 209 199 195 189 184 182 181 187 178 191 187 193 187 187 174 174 172 175 161 167 180 184 190 175 168 180 176 164 164 161 161 168 191 200
37 174 159 255 208 135 149 250 300 159 163 199 214 218 217 220 215 200 196 186 182 177 177 186 182 192 194 185 177 177 179 175 177 172 167 185 184 187 175 181 181 170 163 166 167 182 162 193 223
159 177 205 190 217 128 161 260 294 213 179 217 232 235 210 210 222 208 191 194 175 175 167 178 182 186 188 184 179 166 177 181 179 187 183 181 186 183 180 186 184 167 163 179 177 183 204 189 203
147 174 184 141 293 136 207 255 254 254 224 230 223 239 229 215 228 216 201 182 172 170 173 174 179 187 179 181 192 191 202 198 200 199 195 182 185 179 180 189 182 174 177 187 184 167 204 228 171
165 162 138 56 111 132 178 252 250 231 225 206 212 223 231 208 162 146 137 120 123 144 183 182 186 183 187 182 190 188 181 191 205 194 198 192 184 185 183 181 190 181 170 186 188 176 154 196 177
174 168 178 159 163 329 29 297 256 252 223 221 218 211 212 212 180 150 131 114 86 104 146 208 194 192 190 182 175 146 143 130 185 200 207 200 187 187 188 192 192 188 196 205 201 190 182 208 210
168 181 134 122 99 206 102 275 293 239 232 204 231 208 186 144 124 128 117 93 98 3 341 328 251 198 197 181 180 189 198 196 194 196 199 199 187 189 193 195 185 184 187 185 198 180 192 148 210
192 133 129 132 102 89 309 42 270 292 248 237 226 209 200 170 148 141 138 125 86 42 342 298 285 236 224 187 184 186 196 203 145 163 182 192 201 198 191 190 185 187 193 209 193 185 203 203 210
152 81 46 48 75 311 226 168 272 216 221 243 207 182 156 145 139 137 129 116 86 42 360 348 232 235 189 180 168 184 204 163 160 181 190 195 200 197 196 188 193 200 202 200 204 207 204 211 218
101 88 52 19 355 221 359 226 244 240 228 214 198 169 171 150 140 138 131 111 97 84 51 52 95 65 100 114 141 186 215 166 186 192 189 174 171 186 199 199 200 203 208 210 203 205 214 207 210
167 159 154 181 196 227 339 234 246 258 306 181 152 147 141 141 141 147 148 147 122 85 64 67 76 73 73 86 90 89 117 90 77 70 78 85 120 74 299 203 201 216 224 221 201 204 213 203 212
223 198 163 103 34 64 230 289 297 189 222 164 152 146 164 164 164 156 144 139 119 83 75 85 74 64 61 74 80 75 76 78 81 71 67 69 59 42 43 44 50 50 42 34 11 211 224 204 211
167 152 82 6 127 247 269 267 238 227 230 204 196 194 183 172 166 157 137 125 120 116 100 87 79 77 74 71 65 63 67 81 85 82 76 75 70 60 55 50 46 46 42 34 29 25 19 356 344
129 177 166 137 158 174 208 258 221 212 200 200 208 190 183 175 167 151 146 141 126 110 95 89 81 85 76 75 74 72 66 65 64 65 61 69 68 54 53 53 58 56 52 37 42 40 31 30 14
191 196 169 163 220 202 157 256 207 247 239 187 193 187 186 174 148 140 144 149 137 125 113 107 99 92 89 83 80 75 72 67 68 64 58 56 66 60 63 63 63 58 54 49 51 35 18 17 5